Other Surface Observations
Issued by NWS Charleston, SC

Home | Current Version | Previous Version | Text Only | Print | Product List | Glossary On
Versions: 1 2 3 4 5 6 7 8 9 10 11 12 13 14 15 16 17 18 19 20 21 22 23 24 25 26 27 28 29 30 31 32 33 34 35 36 37 38 39 40 41 42 43 44 45 46 47 48 49 50
000
SXUS52 KCHS 281527
OSOCHS

MARINE OBSERVATIONS
NATIONAL WEATHER SERVICE CHARLESTON SC
1100 AM EDT TUE JUL 28 2015

...DOWNTOWN CHARLESTON AND HARBOR...

CITY           SKY/WX    TMP DP  RH WIND       PRES   REMARKS
WATERFRONT PRK   N/A     84  76  77 NE7       29.97S HX  93

...LAKE MOULTRIE...

CITY           SKY/WX    TMP DP  RH WIND       PRES   REMARKS
PINOPOLIS      NOT AVBL

...LAKE AND SUPPLEMENTAL COASTAL OBSERVATIONS...

STATION/POSITION TIME  TEMP    WIND        PRES    WAVE   SWELL
                       AIR SEA DIR/SP/G            HT/PER HT/PER/DIR
                 (UTC) (F)     (DEG/KT/KT) (MB)    (FT/S) (FT/S/D)
FORT PULASKI     1500   84 85   50/  7/  9 1015.8F
SAPELO ISLAND    1500   86      30/  6     1015.0S
UPR LAKE MARION  NOT AVBL
WINYAH BAY       1400   82      60/ 10     1015.0
LAKE MURRAY      1500   85     200/  4/  5 1015.6F
ACE BASIN NERRS  1445   89      60/  2     1016.0


...C-MAN AND BUOY OBSERVATIONS...

STATION/POSITION TIME  TEMP    WIND        PRES    WAVE   SWELL
                       AIR SEA DIR/SP/G            HT/PER HT/PER/DIR
                 (UTC) (F)     (DEG/KT/KT) (MB)    (FT/S) (FT/S/D)
BUOY 41004       1450   83 84   60/ 16/ 17 1014.6R   3/ 7   2/ 7
BUOY 41008       1450   81 83   40/  4/  6 1015.4R   2/ 5   2/150/ 5
FOLLY BEACH CMAN 1500   84      60/ 11/ 14 1015.9R
CAPERS NS BUOY   1408   82      60/ 12/ 16 1015.5R
FRIPP NS BUOY    1400   84      40/  8/ 10 1015.2R
5E ST. MARYS GA  1421      82                N/A     2/11


STATION/POSITION TIME  TEMP    WIND        PRES    WAVE   SWELL
                       AIR SEA DIR/SP/G            HT/PER HT/PER/DIR
                 (UTC) (F)     (DEG/KT/KT) (MB)    (FT/S) (FT/S/D)
FRYING PAN BUOY  1450   84 83   90/ 16/ 17 1015.9R   4/ 7   2/110/11
BUOY 41025       NOT AVBL
CAPE LOOKOUT NC  1500   81      90/ 13/ 15 1016.5R
BUOY 41002       1450   79 82  240/ 14/ 16 1016.3R   6/ 7   5/250/ 7
BUOY 41010       1420   84 84  230/ 16/ 17 1016.2R
ST AUGUSTINE FL  1500   78 80  110/  4/  4 1015.2S

$$



USA.gov is the U.S. government's official web portal to all federal, state and local government web resources and services.